Terminal Aerodrome Forecast
Issued by NWS St Louis, MO

Home | Current Version | Previous Version | Text Only | Print | Product List | Glossary On
Versions: 1 2 3 4 5 6 7 8 9 10 11 12 13 14 15 16 17 18 19 20 21 22 23 24 25 26 27
000
FTUS43 KLSX 242327
TAFSTL
TAF
KSTL 242327Z 2500/2606 VRB06KT P6SM FEW250
     FM250900 VRB04KT P6SM VCTS SCT025 BKN060CB
     FM251500 36005KT P6SM BKN050
     FM260100 03006KT P6SM SCT250=

USA.gov is the U.S. government's official web portal to all federal, state and local government web resources and services.